La Grange, TX

7:18 PM CDT on September 21, 2019 (GMT -0500)
La Grange

Weather History for K3T5 - August, 2019

Change the Weather History Date:

Wednesday, August 21, 2019

  Actual Average (KAUS) Record (KAUS)
Temperature  
Mean Temperature 86 °F -  
Max Temperature 98 °F 93 °F 104 °F (1999)
Min Temperature 75 °F 70 °F 66 °F (2001)
Cooling Degree Days 21    
Growing Degree Days 36 (Base 50)    
Moisture  
Dew Point 74 °F    
Average Humidity 69    
Maximum Humidity 100    
Minimum Humidity 38    
Precipitation  
Precipitation 0.00 in - - ()
Sea Level Pressure  
Sea Level Pressure 29.97 in    
Wind  
Wind Speed 4 mph (South)    
Max Wind Speed 16 mph    
Max Gust Speed 23 mph    
Visibility 9 miles    
Events Rain    
Averages and records for this station are not official NWS values.
T = Trace of Precipitation, MM = Missing Value Source: NWS Daily Summary

Daily Weather History Graph

Daily Weather History Graph

Search for Another Location

Airport or City:

Astronomy

Aug. 21, 2019 Rise Set
Actual Time 6:58 AM CDT 8:02 PM CDT
Civil Twilight 6:33 AM CDT 8:27 PM CDT
Nautical Twilight 6:04 AM CDT 8:56 PM CDT
Astronomical Twilight 5:34 AM CDT 9:27 PM CDT
Moon 11:46 PM CDT (8/21) 12:11 PM CDT (8/21)
Length of Visible Light 13h 53m
Length of Day
13h 04m
Waning Gibbous, 69% of the Moon is Illuminated
Aug 21
Waning Gibbous
Aug 23
Last Quarter
Aug 30
New
Sep 5
First Quarter
Sep 13
Full

Hourly Weather History & Observations

Time (CDT) Temp. Heat Index Dew Point Humidity Pressure Visibility Wind Dir Wind Speed Gust Speed Precip Events Conditions
12:15 AM 81.1 °F 87.2 °F 75.2 °F 82% 29.99 in 10.0 mi SE 3.5 mph - N/A   Clear
12:35 AM 80.8 °F 86.9 °F 75.9 °F 85% 30.00 in 10.0 mi Calm Calm - N/A   Clear
12:55 AM 80.2 °F 85.8 °F 75.9 °F 87% 30.00 in 10.0 mi Calm Calm - N/A   Clear
1:35 AM 79.3 °F - 76.5 °F 91% 30.01 in 10.0 mi Calm Calm - N/A   Clear
1:55 AM 79.5 °F - 77.2 °F 93% 30.00 in 10.0 mi Calm Calm - N/A   Clear
2:35 AM 79.0 °F - 77.9 °F 96% 30.00 in 10.0 mi Calm Calm - N/A   Clear
2:55 AM 78.4 °F - 77.4 °F 96% 29.99 in 10.0 mi Calm Calm - N/A   Clear
3:15 AM 78.6 °F - 77.7 °F 97% 29.99 in 10.0 mi Calm Calm - N/A   Clear
3:35 AM 77.9 °F - 77.7 °F 99% 29.99 in 10.0 mi Calm Calm - N/A   Clear
3:55 AM 77.5 °F - 77.5 °F 100% 29.99 in 7.0 mi Calm Calm - N/A   Clear
4:15 AM 77.2 °F - 77.2 °F 100% 29.99 in 7.0 mi Calm Calm - N/A   Scattered Clouds
5:15 AM 76.5 °F - 76.5 °F 100% 29.99 in 7.0 mi Calm Calm - N/A   Scattered Clouds
5:35 AM 76.8 °F - 76.8 °F 100% 29.99 in 7.0 mi Calm Calm - N/A   Clear
5:55 AM 77.0 °F - 77.0 °F 100% 29.99 in 7.0 mi Calm Calm - N/A   Clear
6:15 AM 76.5 °F - 76.5 °F 100% 29.99 in 7.0 mi Calm Calm - N/A   Scattered Clouds
6:35 AM 76.1 °F - 76.1 °F 100% 29.99 in 7.0 mi Calm Calm - N/A   Scattered Clouds
6:55 AM 75.7 °F - 75.7 °F 100% 30.00 in 7.0 mi Calm Calm - N/A   Mostly Cloudy
7:15 AM 76.1 °F - 76.1 °F 100% 30.00 in 7.0 mi Calm Calm - N/A   Mostly Cloudy
7:35 AM 77.0 °F - 77.0 °F 100% 30.00 in 7.0 mi Calm Calm - N/A   Scattered Clouds
7:55 AM 78.1 °F - 78.1 °F 100% 30.00 in 7.0 mi Calm Calm - N/A   Clear
8:15 AM 79.0 °F - 79.0 °F 100% 30.01 in 7.0 mi Calm Calm - N/A   Clear
8:35 AM 80.8 °F 88.7 °F 79.0 °F 94% 30.01 in 7.0 mi South 4.6 mph - N/A   Clear
8:55 AM 82.9 °F 93.4 °F 78.6 °F 87% 30.01 in 0.8 mi SSW 4.6 mph - N/A   Mist
9:15 AM 84.2 °F 95.3 °F 78.3 °F 82% 30.01 in 1.0 mi SW 5.8 mph - N/A Rain Light Rain
9:35 AM 86.2 °F 97.8 °F 77.4 °F 75% 30.02 in 1.0 mi South 9.2 mph - N/A Rain Light Rain
9:55 AM 88.2 °F 100.1 °F 77.0 °F 69% 30.02 in 0.2 mi SSW 8.1 mph - N/A Rain Light Rain
10:15 AM 89.4 °F 100.0 °F 75.4 °F 63% 30.02 in 10.0 mi South 8.1 mph - N/A   Overcast
10:55 AM 90.9 °F 100.0 °F 73.8 °F 57% 30.03 in 10.0 mi SSW 5.8 mph - N/A   Mostly Cloudy
11:15 AM 89.8 °F 98.6 °F 73.6 °F 59% 30.03 in 10.0 mi SW 4.6 mph - N/A   Overcast
11:35 AM 90.7 °F 99.0 °F 73.0 °F 56% 30.03 in 10.0 mi SSW 4.6 mph - N/A   Scattered Clouds
11:55 AM 91.0 °F 97.6 °F 71.2 °F 52% 30.03 in 10.0 mi WSW 4.6 mph - N/A   Scattered Clouds
12:15 PM 93.4 °F 100.3 °F 70.9 °F 48% 30.02 in 10.0 mi SE 6.9 mph - N/A   Scattered Clouds
12:35 PM 92.1 °F 99.4 °F 71.4 °F 51% 30.02 in 10.0 mi WSW 3.5 mph - N/A   Mostly Cloudy
12:55 PM 92.5 °F 98.4 °F 70.0 °F 48% 30.01 in 10.0 mi Calm Calm - N/A   Mostly Cloudy
1:15 PM 95.4 °F 100.8 °F 68.7 °F 42% 30.00 in 10.0 mi Calm Calm - N/A   Mostly Cloudy
1:35 PM 95.4 °F 100.2 °F 68.4 °F 41% 29.99 in 10.0 mi WSW 4.6 mph - N/A   Scattered Clouds
1:55 PM 96.1 °F 101.6 °F 69.1 °F 41% 29.99 in 10.0 mi SE 5.8 mph - N/A   Scattered Clouds
2:15 PM 95.9 °F 101.9 °F 69.3 °F 42% 29.98 in 10.0 mi East 6.9 mph - N/A   Scattered Clouds
2:35 PM 97.0 °F 102.2 °F 68.5 °F 39% 29.96 in 10.0 mi SE 9.2 mph - N/A   Mostly Cloudy
2:55 PM 97.5 °F 102.6 °F 68.2 °F 38% 29.96 in 10.0 mi SE 6.9 mph - N/A   Scattered Clouds
3:15 PM 97.7 °F 103.0 °F 67.8 °F 38% 29.95 in 10.0 mi Calm Calm - N/A   Clear
3:35 PM 97.0 °F 102.8 °F 68.7 °F 40% 29.94 in 10.0 mi SSE 10.4 mph - N/A   Clear
3:55 PM 96.4 °F 105.7 °F 72.3 °F 46% 29.93 in 10.0 mi South 16.1 mph 23.0 mph N/A   Clear
4:15 PM 95.4 °F 102.7 °F 71.2 °F 45% 29.93 in 10.0 mi SSE 16.1 mph 20.7 mph N/A   Scattered Clouds
4:35 PM 94.3 °F 101.0 °F 70.9 °F 46% 29.93 in 10.0 mi South 12.7 mph 18.4 mph N/A   Scattered Clouds
4:55 PM 95.2 °F 101.7 °F 69.8 °F 44% 29.92 in 10.0 mi South 11.5 mph 16.1 mph N/A   Scattered Clouds
5:15 PM 95.4 °F 101.4 °F 69.8 °F 43% 29.92 in 10.0 mi SSE 8.1 mph 16.1 mph N/A   Clear
5:35 PM 95.7 °F 100.9 °F 68.5 °F 41% 29.91 in 10.0 mi SSE 12.7 mph 17.3 mph N/A   Clear
5:55 PM 95.4 °F 100.8 °F 68.9 °F 42% 29.91 in 10.0 mi SE 10.4 mph 16.1 mph N/A   Clear
6:15 PM 94.6 °F 101.1 °F 70.2 °F 45% 29.91 in 10.0 mi SSE 16.1 mph 21.9 mph N/A   Clear
6:35 PM 92.3 °F 98.6 °F 70.5 °F 49% 29.91 in 10.0 mi SSE 8.1 mph - N/A   Clear
6:55 PM 92.1 °F 98.3 °F 70.3 °F 49% 29.91 in 10.0 mi SSE 13.8 mph 17.3 mph N/A   Clear
7:15 PM 91.8 °F 98.6 °F 71.2 °F 51% 29.91 in 10.0 mi SSE 13.8 mph 17.3 mph N/A   Clear
7:35 PM 90.5 °F 97.5 °F 72.0 °F 54% 29.91 in 10.0 mi South 9.2 mph - N/A   Clear
7:55 PM 89.1 °F 96.5 °F 72.3 °F 58% 29.92 in 10.0 mi SSE 8.1 mph 16.1 mph N/A   Clear
8:15 PM 87.8 °F 94.7 °F 72.5 °F 60% 29.93 in 10.0 mi SSE 6.9 mph - N/A   Clear
8:35 PM 86.7 °F 93.7 °F 72.7 °F 63% 29.93 in 10.0 mi SSE 4.6 mph - N/A   Clear
8:55 PM 85.6 °F 92.6 °F 73.0 °F 66% 29.93 in 10.0 mi SSE 4.6 mph - N/A   Clear
9:15 PM 84.7 °F 91.4 °F 73.2 °F 68% 29.93 in 10.0 mi SSE 3.5 mph - N/A   Clear
9:35 PM 84.4 °F 91.0 °F 73.0 °F 69% 29.94 in 10.0 mi Calm Calm - N/A   Clear
9:55 PM 83.5 °F 90.0 °F 73.4 °F 72% 29.95 in 10.0 mi SSE 5.8 mph - N/A   Clear
10:15 PM 83.5 °F 90.0 °F 73.4 °F 72% 29.96 in 10.0 mi South 5.8 mph - N/A   Clear
10:35 PM 83.7 °F 90.1 °F 73.4 °F 71% 29.96 in 10.0 mi South 8.1 mph - N/A   Clear
10:55 PM 83.3 °F 89.6 °F 73.4 °F 72% 29.96 in 10.0 mi South 6.9 mph - N/A   Clear
11:15 PM 82.4 °F 88.4 °F 73.8 °F 75% 29.96 in 10.0 mi South 6.9 mph - N/A   Clear
11:35 PM 81.5 °F 87.2 °F 74.1 °F 78% 29.95 in 10.0 mi South 4.6 mph - N/A   Clear
11:55 PM 80.8 °F 86.1 °F 74.5 °F 81% 29.95 in 10.0 mi SSE 3.5 mph - N/A   Clear